Location: Forli
(44.2227°N, 12.0407°E)
Time: 16:07:11
(UTC+01:00)

BlueWalker 3 - Pass Details

Date: 24 February 2026
Orbit: 451 x 458 km, 53.2° (Epoch: 6 March)

Event Time Altitude Azimuth Distance (km) Brightness Sun altitude
Exits shadow 06:13:36 - 226° (SW) 2,286 4.9 -8.6°
Reaches altitude 10° 06:15:18 10° 224° (SW) 1,593 4.1 -8.3°
Maximum altitude 06:18:51 65° 142° (SE) 504 2.1 -7.7°
Drops below altitude 10° 06:22:25 10° 60° (ENE) 1,598 5.4 -7.0°
Sets 06:24:34 0° 57° (ENE) 2,473 6.4 -6.7°
